Gonzales, LA

2:24 PM CDT on May 23, 2018 (GMT -0500)
Gonzales

Weather History for KL38 - November, 2012

Change the Weather History Date:

Thursday, November 22, 2012

  Actual Average (KBTR) Record (KBTR)
Temperature  
Mean Temperature 58 °F -  
Max Temperature 75 °F 68 °F 88 °F (1900)
Min Temperature 42 °F 45 °F 27 °F (2000)
Degree Days  
Heating Degree Days 6    
Growing Degree Days 8 (Base 50)    
Moisture  
Dew Point 47 °F    
Average Humidity 76    
Maximum Humidity 100    
Minimum Humidity 33    
Precipitation  
Precipitation 0.00 in - - ()
Sea Level Pressure  
Sea Level Pressure 30.19 in    
Wind  
Wind Speed 1 mph ()    
Max Wind Speed 7 mph    
Max Gust Speed -    
Visibility 9.3 miles    
Events      
Averages and records for this station are not official NWS values.
T = Trace of Precipitation, MM = Missing Value Source: Averaged Metar Reports

Daily Weather History Graph

Daily Weather History Graph

Search for Another Location

Airport or City:

Astronomy

Nov. 22, 2012 Rise Set
Actual Time 6:35 AM CST 5:04 PM CST
Civil Twilight 6:09 AM CST 5:30 PM CST
Nautical Twilight 5:40 AM CST 5:59 PM CST
Astronomical Twilight 5:11 AM CST 6:28 PM CST
Moon 1:31 PM CST (11/22) 1:16 AM CST (11/22)
Length of Visible Light 11h 20m
Length of Day
10h 29m
Waxing Gibbous, 71% of the Moon is Illuminated
Nov 22
Waxing Gibbous
Nov 28
Full
Dec 6
Last Quarter
Dec 13
New
Dec 19
First Quarter

Hourly Weather History & Observations

Time (CST) Temp. Dew Point Humidity Pressure Visibility Wind Dir Wind Speed Gust Speed Precip Events Conditions
12:15 AM 48.6 °F 47.1 °F 95% 30.19 in 10.0 mi Calm Calm - N/A   Clear
12:35 AM 48.9 °F 47.1 °F 93% 30.18 in 10.0 mi Calm Calm - N/A   Clear
12:55 AM 47.8 °F 46.6 °F 95% 30.18 in 10.0 mi Calm Calm - N/A   Clear
1:15 AM 47.1 °F 46.4 °F 97% 30.18 in 10.0 mi Calm Calm - N/A   Clear
1:35 AM 46.6 °F 45.7 °F 97% 30.18 in 10.0 mi Calm Calm - N/A   Clear
1:55 AM 46.4 °F 45.9 °F 98% 30.18 in 10.0 mi Calm Calm - N/A   Clear
2:15 AM 46.4 °F 46.0 °F 99% 30.18 in 10.0 mi Calm Calm - N/A   Clear
2:35 AM 45.5 °F 44.6 °F 97% 30.18 in 10.0 mi Calm Calm - N/A   Clear
2:55 AM 45.9 °F 45.5 °F 99% 30.18 in 10.0 mi Calm Calm - N/A   Clear
3:15 AM 45.0 °F 44.4 °F 98% 30.18 in 10.0 mi Calm Calm - N/A   Clear
3:35 AM 44.6 °F 44.2 °F 99% 30.18 in 2.5 mi Calm Calm - N/A   Clear
3:55 AM 44.2 °F 44.2 °F 100% 30.18 in 7.0 mi Calm Calm - N/A   Clear
4:15 AM 44.1 °F 43.7 °F 99% 30.18 in 7.0 mi Calm Calm - N/A   Clear
4:35 AM 44.2 °F 44.2 °F 100% 30.18 in 10.0 mi Calm Calm - N/A   Scattered Clouds
4:55 AM 43.3 °F 43.0 °F 99% 30.18 in 2.5 mi Calm Calm - N/A   Clear
5:15 AM 43.3 °F 43.2 °F 99% 30.18 in 5.0 mi Calm Calm - N/A   Clear
5:35 AM 43.5 °F 43.5 °F 100% 30.19 in 7.0 mi Calm Calm - N/A   Clear
5:55 AM 43.2 °F 43.2 °F 100% 30.20 in 7.0 mi Calm Calm - N/A   Clear
6:15 AM 43.0 °F 42.8 °F 99% 30.20 in 7.0 mi Calm Calm - N/A   Clear
6:35 AM 42.8 °F 42.8 °F 100% 30.20 in 4.0 mi North - - N/A   Clear
6:55 AM 42.8 °F 42.8 °F 100% 30.21 in 5.0 mi Calm Calm - N/A   Clear
7:15 AM 43.7 °F 43.7 °F 100% 30.21 in 7.0 mi Calm Calm - N/A   Clear
7:35 AM 45.9 °F 45.3 °F 98% 30.22 in 10.0 mi Calm Calm - N/A   Clear
7:55 AM 48.6 °F 46.6 °F 93% 30.22 in 10.0 mi Calm Calm - N/A   Clear
8:15 AM 51.8 °F 47.8 °F 86% 30.23 in 10.0 mi Calm Calm - N/A   Clear
8:35 AM 55.2 °F 48.7 °F 79% 30.24 in 10.0 mi Calm Calm - N/A   Clear
8:55 AM 57.7 °F 50.5 °F 77% 30.24 in 10.0 mi Calm Calm - N/A   Clear
9:15 AM 59.9 °F 51.6 °F 74% 30.24 in 10.0 mi Calm Calm - N/A   Clear
9:35 AM 61.7 °F 52.7 °F 72% 30.25 in 10.0 mi Calm Calm - N/A   Clear
9:55 AM 64.0 °F 53.4 °F 68% 30.25 in 10.0 mi Calm Calm - N/A   Clear
10:15 AM 66.4 °F 53.4 °F 63% 30.25 in 10.0 mi Calm Calm - N/A   Clear
10:35 AM 68.7 °F 53.2 °F 58% 30.24 in 10.0 mi Calm Calm - N/A   Clear
10:55 AM 70.2 °F 52.0 °F 52% 30.24 in 10.0 mi South 4.6 mph - N/A   Clear
11:15 AM 71.4 °F 52.0 °F 50% 30.23 in 10.0 mi South 3.5 mph - N/A   Clear
11:35 AM 72.3 °F 48.7 °F 43% 30.23 in 10.0 mi South 5.8 mph - N/A   Clear
11:55 AM 73.2 °F 43.7 °F 35% 30.22 in 10.0 mi SE 6.9 mph - N/A   Clear
12:15 PM 73.8 °F 45.5 °F 36% 30.21 in 10.0 mi South 3.5 mph - N/A   Clear
12:35 PM 73.6 °F 46.6 °F 38% 30.21 in 10.0 mi SSE 3.5 mph - N/A   Clear
12:55 PM 74.7 °F 45.5 °F 35% 30.19 in 10.0 mi SE 5.8 mph - N/A   Clear
1:15 PM 74.8 °F 45.1 °F 35% 30.18 in 10.0 mi SSW 3.5 mph - N/A   Clear
1:35 PM 74.7 °F 45.0 °F 35% 30.17 in 10.0 mi SSW 4.6 mph - N/A   Clear
1:55 PM 75.0 °F 45.1 °F 34% 30.17 in 10.0 mi SE 3.5 mph - N/A   Clear
2:15 PM 74.8 °F 45.3 °F 35% 30.16 in 10.0 mi South 5.8 mph - N/A   Clear
2:35 PM 74.8 °F 44.1 °F 33% 30.16 in 10.0 mi SSE 3.5 mph - N/A   Clear
2:55 PM 74.5 °F 44.4 °F 34% 30.16 in 10.0 mi SSW 3.5 mph - N/A   Clear
3:15 PM 74.1 °F 45.1 °F 35% 30.16 in 10.0 mi Calm Calm - N/A   Clear
3:35 PM 74.3 °F 45.9 °F 36% 30.16 in 10.0 mi SW 3.5 mph - N/A   Clear
3:55 PM 73.0 °F 46.0 °F 38% 30.16 in 10.0 mi West 3.5 mph - N/A   Clear
4:15 PM 72.0 °F 46.2 °F 40% 30.16 in 10.0 mi Calm Calm - N/A   Clear
4:35 PM 70.0 °F 48.2 °F 46% 30.16 in 10.0 mi Calm Calm - N/A   Clear
4:55 PM 66.0 °F 51.6 °F 60% 30.16 in 10.0 mi Calm Calm - N/A   Clear
5:15 PM 63.7 °F 51.6 °F 65% 30.16 in 10.0 mi Calm Calm - N/A   Clear
5:35 PM 62.6 °F 52.0 °F 68% 30.16 in 10.0 mi Calm Calm - N/A   Clear
5:55 PM 60.4 °F 50.5 °F 70% 30.16 in 10.0 mi Calm Calm - N/A   Clear
6:15 PM 59.0 °F 50.2 °F 73% 30.17 in 10.0 mi Calm Calm - N/A   Clear
6:35 PM 58.8 °F 51.1 °F 75% 30.18 in 10.0 mi Calm Calm - N/A   Clear
6:55 PM 57.6 °F 50.2 °F 76% 30.18 in 10.0 mi Calm Calm - N/A   Clear
7:15 PM 57.4 °F 49.5 °F 75% 30.18 in 10.0 mi Calm Calm - N/A   Clear
7:55 PM 54.9 °F 50.2 °F 84% 30.20 in 10.0 mi Calm Calm - N/A   Clear
8:15 PM 54.7 °F 50.5 °F 86% 30.20 in 10.0 mi Calm Calm - N/A   Clear
8:35 PM 53.6 °F 50.4 °F 89% 30.20 in 10.0 mi Calm Calm - N/A   Clear
8:55 PM 53.4 °F 50.0 °F 88% 30.21 in 10.0 mi Calm Calm - N/A   Clear
9:15 PM 52.7 °F 49.5 °F 89% 30.21 in 10.0 mi Calm Calm - N/A   Clear
9:35 PM 52.3 °F 50.0 °F 92% 30.20 in 10.0 mi Calm Calm - N/A   Clear
9:55 PM 50.9 °F 49.3 °F 94% 30.20 in 10.0 mi Calm Calm - N/A   Clear
10:15 PM 51.1 °F 48.9 °F 92% 30.20 in 10.0 mi Calm Calm - N/A   Clear
10:35 PM 51.1 °F 48.6 °F 91% 30.21 in 10.0 mi Calm Calm - N/A   Clear
10:55 PM 50.2 °F 48.6 °F 94% 30.21 in 10.0 mi Calm Calm - N/A   Clear
11:15 PM 50.9 °F 48.9 °F 93% 30.21 in 10.0 mi Calm Calm - N/A   Clear
11:35 PM 50.2 °F 49.1 °F 96% 30.21 in 10.0 mi Calm Calm - N/A   Clear
11:55 PM 50.2 °F 49.1 °F 96% 30.21 in 10.0 mi Calm Calm - N/A   Clear